Wind_Speed
17 21 14 15 19 17 23 24 19 30 28 23 21 16 14 12 13 12 10 8 4 8 9 11 12 11 10 10 8 5 3 5 5
19 9 5 17 24 28 22 19 25 33 30 26 22 20 16 12 9 10 4 3 6 3 6 5 9 7 9 7 7 6 5 6 6
21 20 23 23 19 23 31 39 22 33 31 28 24 21 20 16 15 10 8 4 5 6 4 4 17 10 11 8 6 7 7 7 6
24 21 18 14 21 29 37 31 27 30 28 26 25 23 22 19 16 14 13 10 7 6 5 16 16 12 9 8 7 7 6 7 5
23 20 19 13 15 29 24 20 25 26 22 29 29 25 23 22 19 17 17 15 11 10 8 13 15 12 10 9 8 9 10 7 8
18 22 21 14 9 21 22 6 30 23 12 18 19 23 23 19 13 18 14 16 14 12 11 9 11 10 9 9 11 11 14 14 11
19 12 16 14 12 14 23 22 22 24 20 23 13 15 10 13 18 14 14 14 17 16 13 11 11 12 9 9 11 11 14 16 13
21 20 12 12 9 13 22 26 23 20 21 19 15 6 5 6 7 14 17 13 19 16 16 13 12 11 10 10 9 11 12 7 8
14 15 9 11 12 16 15 16 14 18 16 14 18 17 12 12 15 11 17 22 15 15 12 13 11 8 7 8 6 5 9 14 15
9 8 11 11 8 8 15 16 17 14 13 11 11 9 6 3 3 7 10 17 16 8 9 9 6 4 3 3 3 5 6 7 7
4 9 12 7 9 12 6 14 18 18 17 17 14 11 10 7 6 8 10 13 15 14 11 14 15 11 7 3 5 4 3 1 1
12 8 13 13 12 11 21 21 18 19 19 16 16 12 10 8 7 5 4 4 7 14 17 18 14 10 10 10 10 7 5 8 9
12 12 13 12 13 17 21 18 21 24 22 18 15 10 9 10 9 8 6 5 7 9 7 5 3 7 8 9 11 8 7 11 11
15 14 15 14 14 17 17 15 17 20 15 16 15 14 13 9 9 6 8 10 15 14 15 13 12 11 9 9 11 10 9 8 11
13 14 15 17 19 18 18 20 24 23 20 17 17 16 17 15 13 11 15 16 12 11 13 13 11 13 11 9 9 8 8 9 8
13 17 17 17 19 19 17 20 25 24 20 21 21 20 18 17 16 15 13 13 12 13 15 16 14 15 14 11 7 8 8 7 6
12 14 16 18 18 17 15 15 18 21 19 17 17 16 15 16 16 9 7 7 9 9 5 7 8 9 8 6 3 4 4 5 4
11 13 17 16 16 16 15 15 15 13 14 15 15 12 12 11 11 4 9 15 12 10 11 9 7 12 8 7 6 4 5 6 5
15 12 16 17 16 16 14 12 13 11 9 9 11 11 11 13 13 8 7 5 7 6 7 8 7 7 3 5 2 5 8 11 10
17 16 14 14 16 14 15 14 11 8 7 6 6 9 11 11 11 14 9 9 8 7 8 7 5 5 6 6 6 9 11 11 10
Wind_Direction
215 196 165 227 182 166 177 203 198 161 163 163 175 189 191 182 180 194 213 208 238 214 302 184 188 198 199 190 210 215 240 257 263
208 194 251 239 156 169 170 193 231 160 160 165 179 188 189 187 187 211 243 214 238 177 8 124 164 197 198 199 206 207 231 266 268
201 170 188 234 173 173 174 198 208 160 159 164 177 185 180 190 191 204 201 185 193 196 236 128 262 228 217 190 199 219 232 253 265
190 205 208 184 163 198 194 188 163 154 160 167 180 181 181 184 188 193 197 196 205 200 177 185 202 208 207 206 203 218 235 256 281
187 202 209 200 188 177 195 149 154 161 162 166 182 190 185 185 190 193 195 195 199 214 190 193 198 198 199 205 209 225 236 236 243
189 195 200 207 183 145 125 121 145 173 225 221 185 175 195 190 197 190 206 196 206 208 194 196 202 206 210 225 227 231 233 228 231
190 189 187 194 116 140 143 208 163 161 180 167 168 157 190 195 204 193 225 217 213 211 202 211 213 216 215 227 235 236 237 228 226
155 181 144 134 180 134 131 148 142 151 161 159 152 167 221 232 218 211 219 255 232 211 210 210 218 227 227 224 239 250 242 257 254
113 169 181 155 170 159 159 142 134 149 151 159 185 212 236 250 248 236 238 260 253 226 216 220 222 235 234 197 232 255 209 211 201
104 114 84 96 79 166 153 159 159 171 153 155 155 168 151 171 195 221 227 239 235 211 207 198 171 178 163 186 283 349 278 244 253
90 124 112 91 62 52 129 165 164 176 159 158 156 149 150 151 147 135 119 108 100 110 137 112 114 106 109 71 42 8 320 223 218
133 121 90 96 91 65 79 89 110 115 116 110 119 127 140 152 150 142 151 157 101 86 107 105 94 88 77 75 65 50 37 129 114
108 103 100 99 96 94 94 89 107 98 99 108 95 123 140 158 160 162 165 157 162 156 174 138 136 102 84 71 62 49 60 113 142
96 105 105 99 94 89 96 112 119 101 103 103 112 116 120 123 134 151 154 125 131 129 122 131 125 114 97 90 67 57 50 62 83
114 107 104 103 94 92 103 112 114 102 102 115 118 116 111 107 111 108 132 129 120 129 135 135 129 121 104 80 68 49 58 62 55
120 116 110 107 107 106 106 114 115 109 114 115 115 109 103 109 100 96 116 114 117 131 134 136 140 154 132 104 51 50 48 51 32
127 125 123 117 108 103 107 117 120 117 119 116 113 114 110 108 103 104 126 133 106 124 120 192 144 115 116 117 103 1 25 83 45
113 130 126 124 119 115 112 113 113 121 126 126 122 124 120 124 116 105 75 82 83 83 81 79 94 93 109 106 128 29 70 86 99
107 106 103 102 113 115 119 119 120 120 130 140 142 148 165 167 144 136 117 95 89 84 100 96 111 108 110 136 135 120 106 103 99
119 115 111 98 110 110 116 119 122 121 133 144 120 135 135 142 175 149 141 144 131 113 89 103 129 142 126 116 124 120 112 104 103
Height
773 777 785 789 788 796 801 810 810 813 819 824 830 836 840 847 851 853 851 849 849 851 856 859 862 864 863 862 862 862 861 861 863
769 779 780 784 786 793 801 810 809 809 814 820 827 832 836 841 846 847 846 847 846 852 854 856 859 863 863 861 859 859 860 859 859
763 773 787 780 781 786 795 799 807 808 811 817 824 829 833 837 841 844 845 847 849 854 854 851 854 862 863 859 857 858 859 861 862
755 760 769 774 776 788 790 794 800 808 812 817 823 826 829 833 837 840 843 846 848 853 856 858 860 860 861 858 856 857 859 860 861
746 752 756 758 768 780 786 789 799 810 811 811 816 822 826 830 833 836 840 843 847 850 853 857 858 858 857 856 856 858 858 858 860
744 747 752 756 765 784 783 793 795 806 804 815 816 818 826 827 832 833 837 840 843 846 847 849 852 853 853 854 854 856 856 855 855
743 749 751 759 770 780 790 801 803 803 808 815 814 815 821 826 832 832 837 839 841 843 844 846 850 851 851 852 851 853 853 855 858
742 750 757 760 773 783 789 793 796 801 804 809 812 819 824 826 829 831 833 839 840 841 843 844 847 850 850 851 850 849 853 857 859
751 756 763 765 772 781 789 791 796 800 807 811 813 818 823 827 829 831 834 836 839 840 841 844 846 848 850 848 848 847 852 859 860
769 769 774 777 781 779 783 788 794 801 804 812 815 821 823 827 827 829 831 833 836 830 839 843 844 845 846 847 848 847 846 849 853
777 771 777 786 786 785 784 790 794 799 804 810 815 819 823 827 830 832 833 833 835 836 838 842 844 845 847 849 849 849 847 848 847
783 785 783 788 791 793 789 793 799 802 806 811 815 820 824 829 831 833 834 835 834 837 842 842 847 849 851 851 852 852 851 851 852
787 793 792 793 794 795 795 801 802 805 809 813 818 822 827 829 831 835 837 837 840 841 843 845 848 852 852 854 853 855 855 853 856
795 798 796 798 800 801 803 806 807 811 816 818 822 826 828 832 833 836 839 839 841 843 844 848 850 854 856 857 856 858 859 858 857
804 803 799 802 804 807 810 812 813 817 821 824 825 828 831 834 835 838 840 841 843 845 847 850 854 857 858 859 859 861 862 861 862
805 804 807 807 810 813 817 819 819 821 825 828 828 831 834 837 838 841 844 844 845 850 849 851 854 857 860 862 862 861 863 863 864
809 808 811 814 815 819 822 825 825 824 826 828 830 835 838 838 840 844 846 846 847 850 851 851 853 855 857 862 864 863 861 863 868
811 812 814 816 819 822 825 826 828 829 830 832 834 838 839 841 845 847 848 848 849 851 852 852 854 856 858 861 864 865 864 865 865
812 817 818 819 821 824 827 829 830 832 834 835 836 838 839 843 847 851 852 853 855 856 856 856 858 858 861 862 865 864 865 866 866
817 821 823 823 825 826 827 829 832 834 835 837 838 838 840 844 847 850 854 855 856 858 860 859 861 862 864 864 865 865 867 868 869